SL-12 DEB, 41806

Orbit data source: Space-Track

SL-12 DEB, 41806 is space debris in HEO originally from a launch on Mon, 25 Dec 2006 UTC launched from the Tyuratam Missile And Space Complex (TTMTR). Debris objects in space refer to the collection of defunct objects orbiting the Earth. Examples of debris include non-operational satellites, rocket bodies, and fragments generated from explosions, collisions, or faulty payload assembly.

Loading next visibility...
Identifier
41806, 2006-062L
Orbit
HEO
Country
Flag of CISCIS
Related business
Manufacturer
RKKE
Mission
Spacecraft
Bus & Motor
Unknown
Mass
Unknown
Launch date (UTC)
2006-12-25 (19 years ago)
Launch vehicle
Unknown
Launch site
Tyuratam Missile And Space Complex (TTMTR)
Object type
Payload
Rocket body
Debris
Shape & HBR
Unknown shape, 0.2 m
Radar Cross Section
Medium (>0.1 m² and <1 m²)

Expand to show TLE details & history
Last TLE update: 4 days ago

TLE from 4 days ago
0 SL-12 DEB
1 41806U 06062L   25299.78202869  .00000071  00000-0  57409-4 0  9999
2 41806  64.3385 112.6724 5680030 322.4498   8.9826  4.14240948139425
Epoch: 2025-10-26T18:46Z
TLE epoch observation values (Epoch: 2025-10-26T18:46:07.278Z)
Latitude
0.00005°
Longitude
155.75197°
Altitude
1,274.961 km
Speed
8.936 km/s
True Right ascension
07h 30m 42s
True Declination
0° 00' 00"
Sunlit
Object was in daylight at epoch
Visualization orbit readout
Latitude
Unknown
Longitude
Unknown
Altitude
Unknown
Speed
Unknown
Apparent Right ascension
Unknown
Apparent Declination
Unknown
Sunlit
N/A
Visualization observer readout
Local Sidereal Time
00:26:22
Azimuth
Unknown
Elevation
Unknown
Doppler factor
Unknown
Orbital elements
Apogee altitude
19,299.339 km
Perigee altitude
696.207 km
Semi-major axis
16,375.91 km
Eccentricity
0.568
Inclination
64.3385°
RAAN
112.6724°
Arg. of periapsis
322.4498°
True anomaly
37.56616°
Mean anomaly
8.9826°
Eccentric anomaly
20.24292°
Mean motion
1.0357 °/min
Orbital period
347.59 mins
BSTAR
0.000057409
Loading maneuver chart data...
Computing Atmospheric mass density...
Loading historical data...
Loading historical data...
Loading historical data...
Loading historical data...
Loading historical data...
Loading historical data...
Loading historical data...

Documentation

Showing up to 5 results
|